Time,TemperatureF,DewpointF,PressureIn,WindDirection,WindDirectionDegrees,WindSpeedMPH,WindSpeedGustMPH,Humidity,HourlyPrecipIn,Conditions,Clouds,dailyrainin,SolarRadiationWatts/m^2,SoftwareType,DateUTC
2013-03-09 00:01:00,27.0,22.0,-100.00,NNW,337,1.0,3.0,80,0.00,,,0.19,0.000000,,2013-03-09 08:01:00,
2013-03-09 00:11:00,27.0,22.0,-100.00,NNW,337,1.0,3.0,80,0.00,,,0.19,0.000000,,2013-03-09 08:11:00,
2013-03-09 00:21:00,27.0,22.0,-100.00,NNW,337,1.0,3.0,80,0.00,,,0.19,0.000000,,2013-03-09 08:21:00,
2013-03-09 00:31:00,27.0,22.0,-100.00,NNW,337,1.0,3.0,80,0.00,,,0.19,0.000000,,2013-03-09 08:31:00,
2013-03-09 00:52:00,25.0,22.0,-100.00,NNW,337,0.0,2.0,88,0.00,,,0.19,0.000000,,2013-03-09 08:52:00,
2013-03-09 01:01:00,25.0,22.0,-100.00,NNW,337,0.0,2.0,88,0.00,,,0.19,0.000000,,2013-03-09 09:01:00,
2013-03-09 01:11:00,25.0,22.0,-100.00,NNW,337,0.0,2.0,88,0.00,,,0.19,0.000000,,2013-03-09 09:11:00,
2013-03-09 01:21:00,25.0,22.0,-100.00,NNW,337,0.0,2.0,88,0.00,,,0.19,0.000000,,2013-03-09 09:21:00,
2013-03-09 01:31:00,25.0,22.0,-100.00,NNW,337,0.0,2.0,88,0.00,,,0.19,0.000000,,2013-03-09 09:31:00,
2013-03-09 01:52:00,24.0,22.0,-100.00,NNW,337,2.0,2.0,90,0.00,,,0.19,0.000000,,2013-03-09 09:52:00,
2013-03-09 02:01:00,24.0,22.0,-100.00,NNW,337,2.0,2.0,90,0.00,,,0.19,0.000000,,2013-03-09 10:01:00,
2013-03-09 02:11:00,24.0,22.0,-100.00,NNW,337,2.0,2.0,90,0.00,,,0.19,0.000000,,2013-03-09 10:11:00,
2013-03-09 02:21:00,24.0,22.0,-100.00,NNW,337,2.0,2.0,90,0.00,,,0.19,0.000000,,2013-03-09 10:21:00,
2013-03-09 02:31:00,24.0,22.0,-100.00,NNW,337,2.0,2.0,90,0.00,,,0.19,0.000000,,2013-03-09 10:31:00,
2013-03-09 02:52:00,22.0,20.0,-100.00,NNW,337,0.0,3.0,90,0.00,,,0.19,0.000000,,2013-03-09 10:52:00,
2013-03-09 03:01:00,22.0,20.0,-100.00,NNW,337,0.0,3.0,90,0.00,,,0.19,0.000000,,2013-03-09 11:01:00,
2013-03-09 03:31:00,22.0,20.0,-100.00,NNW,337,0.0,3.0,90,0.00,,,0.19,0.000000,,2013-03-09 11:31:00,
2013-03-09 03:52:00,23.0,15.0,-100.00,NNW,337,0.0,0.0,72,0.00,,,0.19,0.000000,,2013-03-09 11:52:00,
2013-03-09 04:01:00,23.0,15.0,-100.00,NNW,337,0.0,0.0,72,0.00,,,0.19,0.000000,,2013-03-09 12:01:00,
2013-03-09 04:11:00,23.0,15.0,-100.00,NNW,337,0.0,0.0,72,0.00,,,0.19,0.000000,,2013-03-09 12:11:00,
2013-03-09 04:21:00,23.0,15.0,-100.00,NNW,337,0.0,0.0,72,0.00,,,0.19,0.000000,,2013-03-09 12:21:00,
2013-03-09 04:52:00,20.0,16.0,-100.00,NNW,337,0.0,0.0,84,0.00,,,-99.99,0.000000,,2013-03-09 12:52:00,
2013-03-09 05:02:00,20.0,16.0,-100.00,NNW,337,0.0,0.0,84,0.00,,,-99.99,0.000000,,2013-03-09 13:02:00,
2013-03-09 05:11:00,20.0,16.0,-100.00,NNW,337,0.0,0.0,84,0.00,,,-99.99,0.000000,,2013-03-09 13:11:00,
2013-03-09 05:21:00,20.0,16.0,-100.00,NNW,337,0.0,0.0,84,0.00,,,-99.99,0.000000,,2013-03-09 13:21:00,
2013-03-09 05:31:00,20.0,16.0,-100.00,NNW,337,0.0,0.0,84,0.00,,,-99.99,0.000000,,2013-03-09 13:31:00,
2013-03-09 05:52:00,23.0,17.0,-100.00,NNW,337,0.0,0.0,79,0.00,,,0.19,0.000000,,2013-03-09 13:52:00,
2013-03-09 06:01:00,23.0,17.0,-100.00,NNW,337,0.0,0.0,79,0.00,,,0.19,0.000000,,2013-03-09 14:01:00,
2013-03-09 06:11:00,23.0,17.0,-100.00,NNW,337,0.0,0.0,79,0.00,,,0.19,0.000000,,2013-03-09 14:11:00,
2013-03-09 06:21:00,23.0,17.0,-100.00,NNW,337,0.0,0.0,79,0.00,,,0.19,0.000000,,2013-03-09 14:21:00,
2013-03-09 06:31:00,23.0,17.0,-100.00,NNW,337,0.0,0.0,79,0.00,,,0.19,0.000000,,2013-03-09 14:31:00,
2013-03-09 06:52:00,23.0,17.0,-100.00,NNW,337,0.0,0.0,79,0.00,,,0.19,1.000000,,2013-03-09 14:52:00,
2013-03-09 07:01:00,23.0,17.0,-100.00,NNW,337,0.0,0.0,79,0.00,,,0.19,1.000000,,2013-03-09 15:01:00,
2013-03-09 07:11:00,23.0,17.0,-100.00,NNW,337,0.0,0.0,79,0.00,,,0.19,1.000000,,2013-03-09 15:11:00,
2013-03-09 07:22:00,23.0,17.0,-100.00,NNW,337,0.0,0.0,79,0.00,,,0.19,1.000000,,2013-03-09 15:22:00,
2013-03-09 07:31:00,23.0,17.0,-100.00,NNW,337,0.0,0.0,79,0.00,,,0.19,1.000000,,2013-03-09 15:31:00,
2013-03-09 07:52:00,25.0,19.0,-100.00,NNW,337,0.0,0.0,77,0.00,,,0.19,13.000000,,2013-03-09 15:52:00,
2013-03-09 08:01:00,25.0,19.0,-100.00,NNW,337,0.0,0.0,77,0.00,,,0.19,13.000000,,2013-03-09 16:01:00,
2013-03-09 08:11:00,25.0,19.0,-100.00,NNW,337,0.0,0.0,77,0.00,,,0.19,13.000000,,2013-03-09 16:11:00,
2013-03-09 08:21:00,25.0,19.0,-100.00,NNW,337,0.0,0.0,77,0.00,,,0.19,13.000000,,2013-03-09 16:21:00,
2013-03-09 08:31:00,25.0,19.0,-100.00,NNW,337,0.0,0.0,77,0.00,,,0.19,13.000000,,2013-03-09 16:31:00,
2013-03-09 08:52:00,27.0,15.0,-100.00,NNW,337,0.0,0.0,61,0.00,,,0.19,23.000000,,2013-03-09 16:52:00,
2013-03-09 09:52:00,31.0,17.0,-100.00,NNW,338,0.0,0.0,55,0.00,,,0.19,33.000000,,2013-03-09 17:52:00,
2013-03-09 10:01:00,31.0,17.0,-100.00,NNW,338,0.0,0.0,55,0.00,,,0.19,33.000000,,2013-03-09 18:01:00,
2013-03-09 10:31:00,31.0,17.0,-100.00,NNW,338,0.0,0.0,55,0.00,,,0.19,33.000000,,2013-03-09 18:31:00,
2013-03-09 10:52:00,40.0,21.0,-100.00,NNW,337,2.0,4.0,46,0.00,,,0.19,271.000000,,2013-03-09 18:52:00,
2013-03-09 11:01:00,40.0,21.0,-100.00,NNW,337,2.0,4.0,46,0.00,,,0.19,271.000000,,2013-03-09 19:01:00,
2013-03-09 11:11:00,40.0,21.0,-100.00,NNW,337,2.0,4.0,46,0.00,,,0.19,271.000000,,2013-03-09 19:11:00,
2013-03-09 11:22:00,40.0,21.0,-100.00,NNW,337,2.0,4.0,46,0.00,,,0.19,271.000000,,2013-03-09 19:22:00,
2013-03-09 11:31:00,40.0,21.0,-100.00,NNW,337,2.0,4.0,46,0.00,,,0.19,271.000000,,2013-03-09 19:31:00,
2013-03-09 11:52:00,44.0,17.0,-100.00,NNW,337,4.0,6.0,33,0.03,,,0.21,617.000000,,2013-03-09 19:52:00,
2013-03-09 12:01:00,44.0,17.0,-100.00,NNW,337,4.0,6.0,33,0.03,,,0.21,617.000000,,2013-03-09 20:01:00,
2013-03-09 12:11:00,44.0,17.0,-100.00,NNW,337,4.0,6.0,33,0.03,,,0.21,617.000000,,2013-03-09 20:11:00,
2013-03-09 12:21:00,44.0,17.0,-100.00,NNW,337,4.0,6.0,33,0.03,,,0.21,617.000000,,2013-03-09 20:21:00,
2013-03-09 12:31:00,44.0,17.0,-100.00,NNW,337,4.0,6.0,33,0.03,,,0.21,617.000000,,2013-03-09 20:31:00,
2013-03-09 12:52:00,46.0,16.0,-100.00,NNW,337,4.0,7.0,29,0.05,,,0.24,666.000000,,2013-03-09 20:52:00,
2013-03-09 13:01:00,46.0,16.0,-100.00,NNW,337,4.0,7.0,29,0.05,,,0.24,666.000000,,2013-03-09 21:01:00,
2013-03-09 13:11:00,46.0,16.0,-100.00,NNW,337,4.0,7.0,29,0.05,,,0.24,666.000000,,2013-03-09 21:11:00,
2013-03-09 13:21:00,46.0,16.0,-100.00,NNW,337,4.0,7.0,29,0.05,,,0.24,666.000000,,2013-03-09 21:21:00,
2013-03-09 13:31:00,46.0,16.0,-100.00,NNW,337,4.0,7.0,29,0.05,,,0.24,666.000000,,2013-03-09 21:31:00,
2013-03-09 13:52:00,51.0,17.0,-100.00,NNW,338,3.0,7.0,26,0.05,,,0.26,654.000000,,2013-03-09 21:52:00,
2013-03-09 14:01:00,51.0,17.0,-100.00,NNW,338,3.0,7.0,26,0.05,,,0.26,654.000000,,2013-03-09 22:01:00,
2013-03-09 14:11:00,51.0,17.0,-100.00,NNW,338,3.0,7.0,26,0.05,,,0.26,654.000000,,2013-03-09 22:11:00,
2013-03-09 14:21:00,51.0,17.0,-100.00,NNW,338,3.0,7.0,26,0.05,,,0.26,654.000000,,2013-03-09 22:21:00,
2013-03-09 14:32:00,51.0,17.0,-100.00,NNW,338,3.0,7.0,26,0.05,,,0.26,654.000000,,2013-03-09 22:32:00,
2013-03-09 14:52:00,51.0,18.0,-100.00,NNW,338,3.0,7.0,27,0.00,,,0.22,584.000000,,2013-03-09 22:52:00,
2013-03-09 15:01:00,51.0,18.0,-100.00,NNW,338,3.0,7.0,27,0.00,,,0.22,584.000000,,2013-03-09 23:01:00,
2013-03-09 15:11:00,51.0,18.0,-100.00,NNW,338,3.0,7.0,27,0.00,,,0.22,584.000000,,2013-03-09 23:11:00,
2013-03-09 15:21:00,51.0,18.0,-100.00,NNW,338,3.0,7.0,27,0.00,,,0.22,584.000000,,2013-03-09 23:21:00,
2013-03-09 15:31:00,51.0,18.0,-100.00,NNW,338,3.0,7.0,27,0.00,,,0.22,584.000000,,2013-03-09 23:31:00,
2013-03-09 15:52:00,48.0,18.0,-100.00,NNW,338,4.0,9.0,30,0.00,,,0.19,462.000000,,2013-03-09 23:52:00,
2013-03-09 16:01:00,48.0,18.0,-100.00,NNW,338,4.0,9.0,30,0.00,,,0.19,462.000000,,2013-03-10 00:01:00,
2013-03-09 16:11:00,48.0,18.0,-100.00,NNW,338,4.0,9.0,30,0.00,,,0.19,462.000000,,2013-03-10 00:11:00,
2013-03-09 16:22:00,48.0,18.0,-100.00,NNW,338,4.0,9.0,30,0.00,,,0.19,462.000000,,2013-03-10 00:22:00,
2013-03-09 16:31:00,48.0,18.0,-100.00,NNW,338,4.0,9.0,30,0.00,,,0.19,462.000000,,2013-03-10 00:31:00,
2013-03-09 16:52:00,46.0,19.0,-100.00,NNW,338,2.0,9.0,33,0.00,,,0.15,288.000000,,2013-03-10 00:52:00,
2013-03-09 17:01:00,46.0,19.0,-100.00,NNW,338,2.0,9.0,33,0.00,,,0.15,288.000000,,2013-03-10 01:01:00,
2013-03-09 17:11:00,46.0,19.0,-100.00,NNW,338,2.0,9.0,33,0.00,,,0.15,288.000000,,2013-03-10 01:11:00,
2013-03-09 17:21:00,46.0,19.0,-100.00,NNW,338,2.0,9.0,33,0.00,,,0.15,288.000000,,2013-03-10 01:21:00,
2013-03-09 17:31:00,46.0,19.0,-100.00,NNW,338,2.0,9.0,33,0.00,,,0.15,288.000000,,2013-03-10 01:31:00,
2013-03-09 17:52:00,39.0,17.0,-100.00,NNW,337,1.0,8.0,40,0.00,,,-99.99,50.000000,,2013-03-10 01:52:00,
2013-03-09 18:01:00,39.0,17.0,-100.00,NNW,337,1.0,8.0,40,0.00,,,-99.99,50.000000,,2013-03-10 02:01:00,
2013-03-09 18:11:00,39.0,17.0,-100.00,NNW,337,1.0,8.0,40,0.00,,,-99.99,50.000000,,2013-03-10 02:11:00,
2013-03-09 18:22:00,39.0,17.0,-100.00,NNW,337,1.0,8.0,40,0.00,,,-99.99,50.000000,,2013-03-10 02:22:00,
2013-03-09 18:31:00,39.0,17.0,-100.00,NNW,337,1.0,8.0,40,0.00,,,-99.99,50.000000,,2013-03-10 02:31:00,
2013-03-09 18:52:00,35.0,18.0,-100.00,NNW,337,1.0,4.0,49,0.00,,,-99.99,4.000000,,2013-03-10 02:52:00,
2013-03-09 19:01:00,35.0,18.0,-100.00,NNW,337,1.0,4.0,49,0.00,,,-99.99,4.000000,,2013-03-10 03:01:00,
2013-03-09 19:11:00,35.0,18.0,-100.00,NNW,337,1.0,4.0,49,0.00,,,-99.99,4.000000,,2013-03-10 03:11:00,
2013-03-09 19:21:00,35.0,18.0,-100.00,NNW,337,1.0,4.0,49,0.00,,,-99.99,4.000000,,2013-03-10 03:21:00,
2013-03-09 19:31:00,35.0,18.0,-100.00,NNW,337,1.0,4.0,49,0.00,,,-99.99,4.000000,,2013-03-10 03:31:00,
2013-03-09 19:52:00,33.0,16.0,-100.00,NNW,337,0.0,4.0,50,0.00,,,0.13,0.000000,,2013-03-10 03:52:00,
2013-03-09 20:01:00,33.0,16.0,-100.00,NNW,337,0.0,4.0,50,0.00,,,0.13,0.000000,,2013-03-10 04:01:00,
2013-03-09 20:11:00,33.0,16.0,-100.00,NNW,337,0.0,4.0,50,0.00,,,0.13,0.000000,,2013-03-10 04:11:00,
2013-03-09 20:21:00,33.0,16.0,-100.00,NNW,337,0.0,4.0,50,0.00,,,0.13,0.000000,,2013-03-10 04:21:00,
2013-03-09 20:31:00,33.0,16.0,-100.00,NNW,337,0.0,4.0,50,0.00,,,0.13,0.000000,,2013-03-10 04:31:00,
2013-03-09 20:52:00,32.0,14.0,-100.00,NNW,337,1.0,3.0,47,0.00,,,0.13,0.000000,,2013-03-10 04:52:00,
2013-03-09 21:01:00,32.0,14.0,-100.00,NNW,337,1.0,3.0,47,0.00,,,0.13,0.000000,,2013-03-10 05:01:00,
2013-03-09 21:21:00,32.0,14.0,-100.00,NNW,337,1.0,3.0,47,0.00,,,0.13,0.000000,,2013-03-10 05:21:00,
2013-03-09 21:31:00,32.0,14.0,-100.00,NNW,337,1.0,3.0,47,0.00,,,0.13,0.000000,,2013-03-10 05:31:00,
2013-03-09 21:52:00,30.0,16.0,-100.00,NNW,337,0.0,2.0,56,0.00,,,0.13,0.000000,,2013-03-10 05:52:00,
2013-03-09 22:01:00,30.0,16.0,-100.00,NNW,337,0.0,2.0,56,0.00,,,0.13,0.000000,,2013-03-10 06:01:00,
2013-03-09 22:11:00,30.0,16.0,-100.00,NNW,337,0.0,2.0,56,0.00,,,0.13,0.000000,,2013-03-10 06:11:00,
2013-03-09 22:21:00,30.0,16.0,-100.00,NNW,337,0.0,2.0,56,0.00,,,0.13,0.000000,,2013-03-10 06:21:00,
2013-03-09 22:31:00,30.0,16.0,-100.00,NNW,337,0.0,2.0,56,0.00,,,0.13,0.000000,,2013-03-10 06:31:00,
2013-03-09 22:52:00,30.0,14.0,-100.00,NNW,337,0.0,3.0,51,0.00,,,0.13,0.000000,,2013-03-10 06:52:00,
2013-03-09 23:01:00,30.0,14.0,-100.00,NNW,337,0.0,3.0,51,0.00,,,0.13,0.000000,,2013-03-10 07:01:00,
2013-03-09 23:11:00,30.0,14.0,-100.00,NNW,337,0.0,3.0,51,0.00,,,0.13,0.000000,,2013-03-10 07:11:00,
2013-03-09 23:21:00,30.0,14.0,-100.00,NNW,337,0.0,3.0,51,0.00,,,0.13,0.000000,,2013-03-10 07:21:00,
2013-03-09 23:31:00,30.0,14.0,-100.00,NNW,337,0.0,3.0,51,0.00,,,0.13,0.000000,,2013-03-10 07:31:00,
2013-03-09 23:52:00,29.0,14.0,-100.00,NNW,337,0.0,3.0,54,0.00,,,0.13,0.000000,,2013-03-10 07:52:00,